This is the latest recevied weather packets stored in our database for station/object LY3FF-10. If no packets are shown the sender has not sent any weather packets the latest 1 day(s).
| Time | Temp. | Humidity | Pressure | Rain* | Wind** | Luminosity | Snow |
|---|---|---|---|---|---|---|---|
| 1778084993 | 17.78° C | 60% | 985.3 hPa | - | - | - | - |
| 1778082583 | 17.78° C | 61% | 985.5 hPa | - | - | - | - |
| 1778079244 | 16.67° C | 57% | 986.5 hPa | - | - | - | - |
| 1778078468 | 16.67° C | 54% | 986.6 hPa | - | - | - | - |
| 1778072193 | 22.22° C | 44% | 986.8 hPa | - | - | - | - |
| 1778068278 | 28.89° C | 45% | 987.5 hPa | - | - | - | - |
| 1778066528 | 20° C | 47% | 987.9 hPa | - | - | - | - |
| 1778064028 | 18.33° C | 49% | 988.2 hPa | - | - | - | - |
| 1778061658 | 30° C | 51% | 988.7 hPa | - | - | - | - |
| 1778058258 | 21.11° C | 53% | 988.6 hPa | - | - | - | - |
| 1778049236 | 15° C | 61% | 989.5 hPa | - | - | - | - |
| 1778048506 | 11.67° C | 61% | 989.5 hPa | - | - | - | - |
| 1778046043 | 11.11° C | 65% | 989.8 hPa | - | - | - | - |
| 1778044373 | 13.33° C | 68% | 989.8 hPa | - | - | - | - |
| 1778043478 | 10.56° C | 69% | 989.8 hPa | - | - | - | - |
| 1778042718 | 10.56° C | 69% | 989.6 hPa | - | - | - | - |
| 1778038889 | 10° C | 69% | 989.4 hPa | - | - | - | - |
| 1778038048 | 11.67° C | 69% | 989.3 hPa | - | - | - | - |
| 1778036358 | 11.67° C | 68% | 989.3 hPa | - | - | - | - |
| 1778035552 | 10° C | 68% | 989.2 hPa | - | - | - | - |
| 1778033268 | 10° C | 66% | 988.9 hPa | - | - | - | - |
| 1778032509 | 10° C | 66% | 989 hPa | - | - | - | - |
| 1778031650 | 10° C | 66% | 988.8 hPa | - | - | - | - |
| 1778030769 | 12.22° C | 65% | 988.9 hPa | - | - | - | - |
| 1778029178 | 12.78° C | 65% | 989.2 hPa | - | - | - | - |
* Rain since midnight (hover to see other rain measurements)
** Current wind speed in m/s (hover to see current wind gust speed)